Météo Nord-Pas-de-Calais   La météo au plus près de chez vous

Station météorologique

Observations météo à Belle-Isle-En-Terre (22005)

22005003 158 m Dernier relevé à 05:12
14°C
Humidité 88 % Vent 7.6 km/h

Journée consultée

Dimanche 6 Septembre 2026

Synthèse de la journée

Périodes de référence en UTC

Température maximale

25.8°C

à 17:00

06h 06h

Température minimale

13.6°C

à 04:12

18h 18h

Rafale maximale

19 km/h

à 05:00

00h 00h

Précipitations

0 mm

Cumul quotidien

06h 06h

Graphiques de la journée

Heure locale Réduire

Données détaillées

Relevés météo

Pas de 6 minutes Afficher les relevés infra-horaires
Relevés météo détaillés à Belle-Isle-En-Terre pour le Dimanche 6 Septembre 2026
Heure Température °C Point de rosée °C Humidité % Vent moyen (raf.), km/h Précipitations mm Température à 10 cm °C
05:12 14 °C 10.8 °C 81 % 10 km/h (14 km/h) 0 mm0 mm 17.2 °C
05:06 13.9 °C 10.9 °C 82 % 9 km/h (19 km/h) 0 mm0 mm 17.2 °C
05:00 13.9 °C 10.7 °C 81 % 9 km/h (19 km/h) 0 mm0 mm 17.2 °C
04:54 13.9 °C 10.9 °C 82 % 8 km/h (14 km/h) 0 mm0 mm 17.3 °C
04:48 13.8 °C 10.8 °C 82 % 8 km/h (13 km/h) 0 mm0 mm 17.3 °C
04:42 13.7 °C 11 °C 84 % 9 km/h (13 km/h) 0 mm0 mm 17.3 °C
04:36 13.7 °C 11.4 °C 86 % 8 km/h (13 km/h) 0 mm0 mm 17.3 °C
04:30 13.7 °C 11.6 °C 87 % 8 km/h (13 km/h) 0 mm0 mm 17.3 °C
04:24 13.6 °C 11.5 °C 87 % 8 km/h (13 km/h) 0 mm0 mm 17.3 °C
04:18 13.6 °C 11.6 °C 88 % 8 km/h (13 km/h) 0 mm0 mm 17.4 °C
04:12 13.6 °C 11.6 °C 88 % 8 km/h (12 km/h) 0 mm0 mm 17.4 °C
04:06 13.7 °C 11.7 °C 88 % 6 km/h (10 km/h) 0 mm0 mm 17.4 °C
04:00 13.8 °C 11.7 °C 87 % 5 km/h (9 km/h) 0 mm0 mm 17.4 °C
03:54 13.9 °C 11.8 °C 87 % 5 km/h (10 km/h) 0 mm0 mm 17.4 °C
03:48 13.9 °C 11.8 °C 87 % 6 km/h (12 km/h) 0 mm0 mm 17.4 °C
03:42 13.9 °C 11.6 °C 86 % 8 km/h (13 km/h) 0 mm0 mm 17.4 °C
03:36 13.9 °C 11.4 °C 85 % 8 km/h (13 km/h) 0 mm0 mm 17.5 °C
03:30 13.9 °C 11.2 °C 84 % 8 km/h (12 km/h) 0 mm0 mm 17.5 °C
03:24 13.9 °C 11.1 °C 83 % 8 km/h (13 km/h) 0 mm0 mm 17.5 °C
03:18 13.9 °C 11.1 °C 83 % 9 km/h (13 km/h) 0 mm0 mm 17.5 °C
03:12 13.9 °C 10.9 °C 82 % 9 km/h (13 km/h) 0 mm0 mm 17.5 °C
03:06 13.9 °C 10.9 °C 82 % 9 km/h (13 km/h) 0 mm0 mm 17.6 °C
03:00 14 °C 10.8 °C 81 % 8 km/h (11 km/h) 0 mm0 mm 17.6 °C
02:54 14.1 °C 10.9 °C 81 % 7 km/h (10 km/h) 0 mm0 mm 17.6 °C
02:48 14.1 °C 11.1 °C 82 % 8 km/h (12 km/h) 0 mm0 mm 17.6 °C
02:42 14.1 °C 11.1 °C 82 % 8 km/h (12 km/h) 0 mm0 mm 17.6 °C
02:36 14.2 °C 11 °C 81 % 8 km/h (10 km/h) 0 mm0 mm 17.6 °C
02:30 14.3 °C 10.9 °C 80 % 8 km/h (12 km/h) 0 mm0 mm 17.6 °C
02:24 14.4 °C 11 °C 80 % 8 km/h (12 km/h) 0 mm0 mm 17.7 °C
02:18 14.6 °C 10.8 °C 78 % 8 km/h (10 km/h) 0 mm0 mm 17.7 °C
02:12 14.7 °C 10.7 °C 77 % 6 km/h (10 km/h) 0 mm0 mm 17.7 °C
02:06 14.8 °C 10.8 °C 77 % 5 km/h (9 km/h) 0 mm0 mm 17.7 °C
02:00 14.7 °C 10.9 °C 78 % 4 km/h (7 km/h) 0 mm0 mm 17.7 °C
01:54 14.8 °C 11.2 °C 79 % 4 km/h (7 km/h) 0 mm0 mm 17.7 °C
01:48 14.9 °C 11.5 °C 80 % 4 km/h (8 km/h) 0 mm0 mm 17.8 °C
01:42 15 °C 11.9 °C 82 % 3 km/h (8 km/h) 0 mm0 mm 17.8 °C
01:36 15.1 °C 11.7 °C 80 % 3 km/h (6 km/h) 0 mm0 mm 17.8 °C
01:30 15.1 °C 11.5 °C 79 % 3 km/h (6 km/h) 0 mm0 mm 17.8 °C
01:24 15.1 °C 11.7 °C 80 % 3 km/h (10 km/h) 0 mm0 mm 17.8 °C
01:18 15.1 °C 11.7 °C 80 % 4 km/h (10 km/h) 0 mm0 mm 17.8 °C
01:12 15.3 °C 11.9 °C 80 % 5 km/h (10 km/h) 0 mm0 mm 17.8 °C
01:06 15.3 °C 12.1 °C 81 % 4 km/h (8 km/h) 0 mm0 mm 17.9 °C
01:00 15.3 °C 11.9 °C 80 % 4 km/h (8 km/h) 0 mm0 mm 17.9 °C
00:54 15.4 °C 11.8 °C 79 % 3 km/h (6 km/h) 0 mm0 mm 17.9 °C
00:48 15.4 °C 11.8 °C 79 % 4 km/h (13 km/h) 0 mm0 mm 17.9 °C
00:42 15.3 °C 11.9 °C 80 % 5 km/h (13 km/h) 0 mm0 mm 17.9 °C
00:36 15.3 °C 11.9 °C 80 % 7 km/h (17 km/h) 0 mm0 mm 17.9 °C
00:30 15.3 °C 11.9 °C 80 % 8 km/h (17 km/h) 0 mm0 mm 17.9 °C
00:24 15.4 °C 12 °C 80 % 9 km/h (17 km/h) 0 mm0 mm 18 °C
00:18 15.5 °C 12.1 °C 80 % 10 km/h (18 km/h) 0 mm0 mm 18 °C
00:12 15.4 °C 12 °C 80 % 9 km/h (18 km/h) 0 mm0 mm 18 °C
00:06 15.4 °C 12 °C 80 % 8 km/h (17 km/h) 0 mm0 mm 18 °C
00:00 15.5 °C 12.1 °C 80 % 9 km/h (18 km/h) 0 mm0 mm 18 °C

Données via Météo-France

Relevés météo à Belle-Isle-En-Terre

Cette page rassemble les observations de la station de Belle-Isle-En-Terre : température, humidité, vent, précipitations et pression atmosphérique. Les graphiques facilitent le suivi de la journée, tandis que le tableau donne accès aux mesures horaires et infra-horaires disponibles.

Pour replacer ces mesures dans leur contexte, consultez la climatologie de Belle-Isle-En-Terre. Retrouvez aussi la carte des observations météo en temps réel.